Regional Weather Roundup
Issued by NWS

Home | Current Version | Previous Version | Graphics & Text | Print | Product List | Glossary On
Versions: 1 2 3 4 5 6 7 8 9 10 11 12 13 14 15 16 17 18 19 20 21 22 23 24 25 26 27
000
ASUS45 KTFX 242110
RWRMT
MONTANA REGIONAL WEATHER ROUNDUP
NATIONAL WEATHER SERVICE GREAT FALLS MT
300 PM MDT TUE MAY 24 2016

NOTE: "FAIR" INDICATES FEW OR NO CLOUDS BELOW 12000 FEET WITH NO
SIGNIFICANT WEATHER AND/OR OBSTRUCTIONS TO VISIBILITY.

MTZ001>007-043-242200-
WEST OF THE DIVIDE

CITY           SKY/WX    TMP DP  RH WIND       PRES   REMARKS
KALISPELL      SUNNY     58  40  51 VRB5      29.91F
MISSOULA       CLOUDY    55  42  61 NW10      29.93F
BUTTE          MOSUNNY   49  36  61 VRB3      29.92F
MULLAN PASS    CLOUDY    42  41  96 VRB5      29.95R
ANACONDA         N/A     54  36  50 CALM      29.90S
DEER LODGE       N/A     54  39  58 N3        29.91S
EUREKA           N/A     61  36  39 CALM      29.89F
HAMILTON         N/A     55  43  62 N8        29.90F
LIBBY            N/A     63  37  39 SE3       29.90S
PLAINS           N/A     61  44  53 CALM      29.94S
$$

MTZ008-052>055-242200-
SOUTHWEST MONTANA

CITY           SKY/WX    TMP DP  RH WIND       PRES   REMARKS
BOZEMAN        CLOUDY    53  39  59 N6        29.91F
DILLON         CLOUDY    55  37  50 E9        29.89F
ENNIS          MOSUNNY   54  37  54 N7        29.94F
TWIN BRIDGES     N/A     55  34  45 NE2       29.90F
$$

MTZ009-010-012-014-046-048-049-054-242200-
EAST SLOPES AND CENTRAL MONTANA

CITY           SKY/WX    TMP DP  RH WIND       PRES   REMARKS
CUT BANK       CLOUDY    54  38  54 VRB3      29.88S
GREAT FALLS    CLOUDY    58  37  45 VRB6      29.89S
MALMSTROM AFB  MOSUNNY   58  41  54 NE12      29.89F
HELENA         CLOUDY    58  39  49 VRB6      29.90R
CHOTEAU          N/A     55  37  50 E8        29.90S
CONRAD           N/A     58  45  62 W6        29.92F
$$

MTZ011-013-016-021-045-047-050-051-242200-
NORTH CENTRAL MONTANA

CITY           SKY/WX    TMP DP  RH WIND       PRES   REMARKS
HAVRE          CLOUDY    54  45  71 W7        29.89S
LEWISTOWN      LGT RAIN  49  42  77 S5        29.91R
N BAR RANCH    CLOUDY    50  45  81 NE7       29.93S
CHINOOK          N/A     55  45  67 W10       29.89S
$$

MTZ017>020-022>027-061-062-242200-
NORTHEAST MONTANA

CITY           SKY/WX    TMP DP  RH WIND       PRES   REMARKS
GLASGOW        CLOUDY    60  41  49 W15       29.87F
JORDAN           N/A     64  39  39 VRB5      29.89S
SIDNEY         PTSUNNY   66  43  42 S10       29.88S
WOLF POINT     MOSUNNY   68  42  38 W13G20    29.88F
PLENTYWOOD       N/A     63  39  42 SW18      29.87S
POPLAR           N/A     64  39  39 SW8G16    29.88F
SCOBEY           N/A     61  36  39 SW20      29.87R
$$

MTZ028>42-056>058-242200-
SOUTHCENTRAL AND SOUTHEAST MONTANA

CITY           SKY/WX    TMP DP  RH WIND       PRES   REMARKS
BAKER          PTSUNNY   67  39  35 VRB7      29.89F
BILLINGS       PTSUNNY   63  39  41 N7        29.88S
LIVINGSTON     CLOUDY    57  38  48 SW9       29.88F
MILES CITY     PTSUNNY   68  41  37 NW7       29.87F
EKALAKA          N/A     68  38  33 E8        29.87F
FORSYTH          N/A     64  43  45 N6        29.87F
ROUNDUP          N/A     60  36  40 CALM      29.81F
$$

REGIONAL REPORTS...DAKOTAS

CITY           SKY/WX    TMP DP  RH WIND       PRES   REMARKS
WILLISTON      CLOUDY    70  37  29 SW15G21   29.88S
MINOT          PTSUNNY   75  39  27 SW8       29.88S
DICKINSON      PTSUNNY   72  36  26 S6G16     29.87F
BEACH            N/A     68  37  32 W7        29.92S
CROSBY           N/A     68  37  32 W17G25    29.89S
WATFORD CITY     N/A     70  37  30 SW13G18   29.90S
BISMARCK       SUNNY     76  41  28 CALM      29.87F
GRAND FORKS    MOSUNNY   79  50  36 VRB3      29.87S
FARGO          SUNNY     84  45  25 MISG      29.85R
BUFFALO SD       N/A     74  41  30 SE20      29.80F
RAPID CITY     LGT RAIN  70  47  43 E13       29.86F
$$

REGIONAL REPORTS...WYOMING/IDAHO/WASHINGTON

CITY           SKY/WX    TMP DP  RH WIND       PRES   REMARKS
GILLETTE       CLOUDY    70  34  26 SE10G21   29.85F
SHERIDAN       CLOUDY    66  38  35 E9        29.84F
BUFFALO WY     PTSUNNY   66  36  32 SE13G21   29.88F
CODY           CLOUDY    55  39  54 W8        29.88R
YELLOWSTONE LA   N/A     47  31  53 CALM      29.95F
IDAHO FALLS    CLOUDY    63  35  35 SW8       29.84F
SALMON         CLOUDY    55  37  50 N9        29.87S
BOISE          MOSUNNY   71  33  24 W12G23    29.83S
SPOKANE        LGT RAIN  56  48  74 E6        29.93R
$$

REGIONAL REPORTS...ALBERTA

CITY           SKY/WX    TMP DP  RH WIND       PRES   REMARKS
EDMONTON       CLOUDY    61  45  55 S12       29.85F
CALGARY        PTSUNNY   59  37  44 E9G17     29.85F
LETHBRIDGE     PTSUNNY   57  43  58 VRB6      29.87F
MEDICINE HAT   LGT RAIN  54  46  76 NE5       29.87S
WATERTON GATE    N/A     57  39  51 SW13        N/A
MILK RIVER       N/A     55  41  58 S5          N/A
ONEFOUR          N/A     54  41  62 W12         N/A
$$

REGIONAL REPORTS...SASKATCHEWAN

CITY           SKY/WX    TMP DP  RH WIND       PRES   REMARKS
SWIFT CURRENT  PTSUNNY   55  45  67 W7        29.80S
REGINA         LGT RAIN  54  46  76 S21       29.84S
SASKATOON      CLOUDY    57  48  72 NE16      29.87S
CYPRESS HILLS    N/A     50  41  71 NW7         N/A
VAL MARIE        N/A     50  46  87 SW9         N/A
ROCKGLEN         N/A     54  45  71 W12         N/A
ASSINIBOIA       N/A     61  46  59 S6          N/A
$$




USA.gov is the U.S. government's official web portal to all federal, state and local government web resources and services.